Change the Weather History Date:

Tuesday, May 7, 2013

  Actual Average Record
Temperature  
Mean Temperature 67 °F 72 °F  
Max Temperature 76 °F 85 °F 91 °F (2002)
Min Temperature 57 °F 58 °F 48 °F (2005)
Degree Days  
Heating Degree Days 0 0  
Month to date heating degree days 7 0  
Since 1 July heating degree days 1131 1303  
Cooling Degree Days 2 7  
Month to date cooling degree days 23 45  
Year to date cooling degree days 308 227  
Growing Degree Days 15 (Base 50)    
Moisture  
Dew Point 56 °F    
Average Humidity 71    
Maximum Humidity 90    
Minimum Humidity 46    
Precipitation  
Precipitation 0.06 in 0.08 in 0.43 in (2012)
Month to date precipitation 2.09 0.48  
Year to date precipitation 9.63 14.96  
Sea Level Pressure  
Sea Level Pressure 29.99 in    
Wind  
Wind Speed 6 mph (WSW)    
Max Wind Speed 17 mph    
Max Gust Speed 24 mph    
T = Trace of Precipitation, MM = Missing Value Source: NWS Daily Summary

Daily Weather History Graph

Daily Weather History Graph

Search for Another Location

Airport or City:

Trip Planner

Search our weather history database for the weather conditions in past years. The results will help you decide how hot, cold, wet, or windy it might be!

Date:

Astronomy

May. 07, 2013 Rise Set
Actual Time 6:45 AM EDT 8:13 PM EDT
Civil Twilight 6:19 AM EDT 8:38 PM EDT
Nautical Twilight 5:48 AM EDT 9:09 PM EDT
Astronomical Twilight 5:17 AM EDT 9:41 PM EDT
Moon 5:08 AM EDT (5/7) 6:19 PM EDT (5/7)
Length of Visible Light 14h 19m
Length of Day
13h 28m
Waning Crescent, 5% of the Moon is Illuminated
May 7
Waning Crescent
May 9
New
May 18
First Quarter
May 25
Full
May 31
Last Quarter

Hourly Weather History & Observations

Time (EDT) Temp. Dew Point Humidity Pressure Visibility Wind Dir Wind Speed Gust Speed Precip Events Conditions
12:53 AM 59.0 °F 53.1 °F 81% 29.99 in - SW 4.6 mph - N/A   Unknown
1:53 AM 60.1 °F 53.1 °F 78% 29.98 in - Calm Calm - N/A   Unknown
2:53 AM 59.0 °F 54.0 °F 83% 29.96 in - Calm Calm - N/A   Unknown
3:53 AM 60.1 °F 55.9 °F 86% 29.96 in - Calm Calm - N/A   Unknown
4:53 AM 59.0 °F 55.0 °F 87% 29.95 in - Calm Calm - N/A   Unknown
5:53 AM 59.0 °F 55.0 °F 87% 29.95 in - Calm Calm - N/A   Unknown
6:53 AM 57.9 °F 54.0 °F 87% 29.96 in - SSW 3.5 mph - N/A   Unknown
7:53 AM 61.0 °F 55.9 °F 83% 29.98 in - SSW 3.5 mph - N/A   Unknown
8:53 AM 64.0 °F 57.0 °F 78% 29.99 in - Calm Calm - N/A   Unknown
9:53 AM 64.0 °F 59.0 °F 84% 30.01 in - Calm Calm - N/A   Unknown
10:53 AM 68.0 °F 62.1 °F 81% 30.01 in - SSW 8.1 mph - 0.06 in   Unknown
11:53 AM 72.0 °F 60.1 °F 66% 30.01 in - WSW 12.7 mph - N/A   Unknown
12:53 PM 73.9 °F 55.9 °F 53% 30.00 in - West 15.0 mph 23.0 mph N/A   Unknown
1:53 PM 75.0 °F 54.0 °F 48% 30.00 in - West 12.7 mph 20.7 mph N/A   Unknown
2:53 PM 75.0 °F 55.9 °F 51% 29.99 in - West 15.0 mph 20.7 mph N/A   Unknown
3:53 PM 73.9 °F 57.0 °F 55% 29.98 in - WSW 12.7 mph - N/A   Unknown
4:53 PM 73.9 °F 57.9 °F 57% 29.98 in - WSW 11.5 mph 19.6 mph N/A   Unknown
5:53 PM 73.0 °F 57.9 °F 59% 29.99 in - WSW 16.1 mph 21.9 mph N/A   Unknown
6:53 PM 71.1 °F 57.0 °F 61% 29.99 in - West 11.5 mph - N/A   Unknown
7:53 PM 69.1 °F 55.9 °F 63% 30.00 in - WSW 6.9 mph - N/A   Unknown
8:53 PM 64.9 °F 57.0 °F 75% 30.01 in - SW 3.5 mph - N/A   Unknown
9:53 PM 63.0 °F 57.0 °F 81% 30.02 in - WSW 3.5 mph - N/A   Unknown
10:53 PM 62.1 °F 57.9 °F 86% 30.04 in - SSW 4.6 mph - N/A   Unknown
11:53 PM 63.0 °F 59.0 °F 87% 30.04 in - SW 3.5 mph - N/A   Unknown